Regional Weather Roundup
Issued by NWS

Home | Current Version | Previous Version | Graphics & Text | Print | Product List | Glossary On
Versions: 1 2 3 4 5 6 7 8 9 10 11 12 13 14 15 16 17 18 19 20 21 22 23 24 25 26 27 28 29 30 31 32 33 34 35 36 37 38 39 40 41 42 43 44 45 46 47 48 49 50
000
ASUS43 KLMK 170510
RWRKY
KENTUCKY REGIONAL WEATHER ROUNDUP
NATIONAL WEATHER SERVICE LOUISVILLE KY
100 AM EDT TUE OCT 17 2017

NOTE "FAIR" INDICATES FEW OR NO CLOUDS BELOW 12,000 FEET
WITH NO SIGNIFICANT WEATHER AND/OR OBSTRUCTIONS TO VISIBILITY.

KYZ001>023-026-027-061>063-070>075-170600-
WESTERN AND SOUTH CENTRAL KENTUCKY

CITY           SKY/WX    TMP DP  RH WIND       PRES   REMARKS
PADUCAH        CLEAR     41  38  89 CALM      30.31F
HENDERSON      CLEAR     41  39  93 CALM      30.33S
OWENSBORO      CLEAR     45  42  89 CALM      30.33S
HOPKINSVILLE   CLEAR     47  41  78 CALM      30.31F HAZE
BOWLING GREEN  CLEAR     46  44  93 CALM      30.32F
GLASGOW        CLEAR     42  42 100 CALM      30.32S
$$

KYZ024-025-028>034-038-045-046-053-170600-
NORTH CENTRAL KENTUCKY

CITY           SKY/WX    TMP DP  RH WIND       PRES   REMARKS
LOUISVILLE/SDF CLEAR     50  43  77 CALM      30.32S
LOUISVILLE/LOU CLEAR     44  43  96 CALM      30.33S
FORT KNOX      CLEAR     41  39  93 CALM      30.31S FOG
$$

KYZ035>037-039>044-047>052-055>060-089>105-170600-
NORTHEAST KENTUCKY

CITY           SKY/WX    TMP DP  RH WIND       PRES   REMARKS
LEXINGTON      CLEAR     43  39  86 CALM      30.32F
COVINGTON      CLEAR     42  40  92 CALM      30.31F
FRANKFORT      CLEAR     42  38  85 CALM      30.31F
$$

KYZ054-064>069-076>088-106>120-170600-
SOUTHEAST KENTUCKY

CITY           SKY/WX    TMP DP  RH WIND       PRES   REMARKS
JACKSON        CLEAR     46  39  76 CALM      30.32S
LONDON         CLEAR     42  40  92 CALM      30.32F
SOMERSET       CLEAR     41  41 100 CALM      30.33F
MIDDLESBORO    CLEAR     42  42 100 CALM      30.33F
MONTICELLO     CLEAR     39  38  96 N9        30.34S WCI  33
$$





USA.gov is the U.S. government's official web portal to all federal, state and local government web resources and services.